Weather History for Goodland, KS

Change the Weather History Date:

Thursday, February 7, 2013

  Actual Average Record
Temperature  
Mean Temperature 39 °F 31 °F  
Max Temperature 53 °F 43 °F 74 °F (1987)
Min Temperature 25 °F 18 °F -16 °F (1933)
Degree Days  
Heating Degree Days 26 34  
Month to date heating degree days 184 244  
Since 1 July heating degree days 3520 3747  
Cooling Degree Days 0 0  
Month to date cooling degree days 0 0  
Year to date cooling degree days 0 0  
Moisture  
Dew Point 19 °F    
Average Humidity 57    
Maximum Humidity 92    
Minimum Humidity 21    
Precipitation  
Precipitation 0.00 in 0.02 in 0.29 in (1980)
Month to date precipitation 0.00 0.11  
Year to date precipitation 0.07 0.49  
Snow  
Snow 0.00 in 0.20 in - ()
Month to date snowfall 0.0 1.5  
Since 1 July snowfall 10.7 20.1  
Snow Depth 0.00 in    
Sea Level Pressure  
Sea Level Pressure 30.13 in    
Wind  
Wind Speed 12 mph (NNW)    
Max Wind Speed 23 mph    
Max Gust Speed 28 mph    
Visibility 10 miles    
Events      
T = Trace of Precipitation, MM = Missing Value Source: NWS Daily Summary

Daily Weather History Graph

Daily Weather History Graph

Search for Another Location

Airport:

Trip Planner

Search our weather history database for the weather conditions in past years. The results will help you decide how hot, cold, wet, or windy it might be!

Date:

Astronomy

Feb. 07, 2013 Rise Set
Actual Time 6:47 AM MST 5:14 PM MST
Civil Twilight 6:19 AM MST 5:42 PM MST
Nautical Twilight 5:47 AM MST 6:14 PM MST
Astronomical Twilight 5:16 AM MST 6:45 PM MST
Moon 4:28 AM MST (2/7) 2:41 PM MST (2/7)
Length of Visible Light 11h 22m
Length of Day
10h 27m
Waning Crescent, 8% of the Moon is Illuminated
Feb 7
Waning Crescent
Feb 10
New
Feb 17
First Quarter
Feb 25
Full
Mar 4
Last Quarter

Hourly Weather History & Observations

Time (MST) Temp. Windchill Dew Point Humidity Pressure Visibility Wind Dir Wind Speed Gust Speed Precip Events Conditions
12:53 AM 39.9 °F 31.1 °F 26.1 °F 58% 29.96 in 10.0 mi North 17.3 mph - N/A   Overcast
1:53 AM 39.0 °F 29.6 °F 25.0 °F 57% 30.00 in 10.0 mi North 18.4 mph - N/A   Overcast
2:53 AM 37.9 °F 28.2 °F 25.0 °F 60% 30.01 in 10.0 mi North 18.4 mph - N/A   Overcast
3:53 AM 33.1 °F 23.4 °F 25.0 °F 72% 30.02 in 10.0 mi NNW 13.8 mph - N/A   Clear
4:53 AM 30.9 °F 21.2 °F 25.0 °F 79% 30.07 in 10.0 mi NNW 12.7 mph - N/A   Clear
5:53 AM 27.0 °F 18.7 °F 23.0 °F 85% 30.11 in 10.0 mi NNW 8.1 mph - N/A   Clear
6:53 AM 27.0 °F 17.3 °F 24.1 °F 89% 30.14 in 10.0 mi NW 10.4 mph - N/A   Clear
7:53 AM 32.0 °F 23.0 °F 26.1 °F 79% 30.16 in 10.0 mi NW 11.5 mph - N/A   Clear
8:53 AM 39.0 °F 30.6 °F 28.0 °F 65% 30.17 in 10.0 mi NNW 15.0 mph - N/A   Clear
9:53 AM 44.1 °F 36.8 °F 27.0 °F 51% 30.17 in 10.0 mi North 16.1 mph - N/A   Clear
10:53 AM 48.0 °F - 24.1 °F 39% 30.17 in 10.0 mi North 17.3 mph 25.3 mph N/A   Clear
11:53 AM 50.0 °F - 21.0 °F 32% 30.14 in 10.0 mi North 16.1 mph 24.2 mph N/A   Clear
12:53 PM 51.1 °F - 19.0 °F 28% 30.12 in 10.0 mi NW 12.7 mph 20.7 mph N/A   Clear
1:53 PM 53.1 °F - 15.1 °F 22% 30.10 in 10.0 mi NNW 18.4 mph 23.0 mph N/A   Clear
2:53 PM 52.0 °F - 12.9 °F 21% 30.12 in 10.0 mi NNW 11.5 mph - N/A   Clear
3:53 PM 51.1 °F - 12.0 °F 21% 30.13 in 10.0 mi NNW 9.2 mph - N/A   Clear
4:53 PM 46.0 °F 43.1 °F 12.0 °F 25% 30.15 in 10.0 mi NNE 5.8 mph - N/A   Clear
5:53 PM 37.0 °F 34.5 °F 10.9 °F 34% 30.20 in 10.0 mi ENE 3.5 mph - N/A   Clear
6:53 PM 30.0 °F 26.5 °F 8.1 °F 40% 30.23 in 10.0 mi SE 3.5 mph - N/A   Clear
7:53 PM 30.9 °F 24.3 °F 12.0 °F 46% 30.21 in 10.0 mi SE 6.9 mph - N/A   Clear
8:53 PM 28.0 °F 20.0 °F 10.9 °F 49% 30.21 in 10.0 mi SSE 8.1 mph - N/A   Clear
9:53 PM 27.0 °F 18.0 °F 10.9 °F 51% 30.19 in 10.0 mi SSE 9.2 mph - N/A   Clear
10:53 PM 28.9 °F 19.8 °F 12.0 °F 49% 30.17 in 10.0 mi South 10.4 mph - N/A   Clear
11:53 PM 32.0 °F 24.2 °F 12.0 °F 44% 30.16 in 10.0 mi South 9.2 mph - N/A   Clear